Location: Beaurecueil
(43.5122°N, 5.5450°E)
Time: 01:23:29
(UTC+00:00)

Meteor 1-21 - Pass Details

Date: 18 September 2020
Orbit: 845 x 887 km, 81.2° (Epoch: 26 October)

Event Time Altitude Azimuth Distance (km) Brightness Sun altitude
Rises 18:13:59 0° 353° (N) 3,428 7.6 -6.6°
Reaches altitude 10° 18:16:28 10° 357° (N) 2,484 6.8 -7.1°
Maximum altitude 18:22:01 59° 77° (ENE) 978 4.3 -8.1°
Drops below altitude 10° 18:27:30 10° 156° (SSE) 2,460 6.3 -9.0°
Sets 18:29:57 0° 160° (SSE) 3,392 7.0 -9.5°
